Location: �quirre
(50.4736°N, 2.2351°E)
Time: 08:51:43
(UTC+00:00)

SL-4 R/B - Pass Details

Date: 07 August 2020
Orbit: 428 x 665 km, 51.6° (Epoch: 20 September)

Event Time Altitude Azimuth Distance (km) Brightness Sun altitude
Exits shadow 03:33:39 - 281° (W) 2,241 4.7 -8.1°
Reaches altitude 10° 03:35:46 10° 263° (W) 1,531 3.8 -7.8°
Maximum altitude 03:38:07 17° 220° (SW) 1,147 3.0 -7.5°
Drops below altitude 10° 03:40:27 10° 176° (S) 1,521 4.0 -7.2°
Sets 03:43:01 0° 156° (SSE) 2,395 5.2 -6.9°
